Flag for United Kingdom Weather past 2 weeks in Blackpool, England, United Kingdom

Now
46 °F

Passing clouds.


Feels Like: 37 °F
Forecast: 46 / 48 °F
Wind: 30 mph from West

Location: Blackpool Airport

Current Time: Dec 19, 2014 at 1:15:06 PM

Latest Report: Dec 19, 2014 at 12:50 PM


Visibility: N/A

Pressure: 29.89 "Hg

Humidity: 76%

Dew point: 39 °F

Location of BlackpoolLocation

Historic Weather in Blackpool — Graph

°F

Blackpool temperature yesterday

Maximum temperature yesterday: 52 °F (at 6:20 AM)
Minimum temperature yesterday: 50 °F (at 6:50 AM)
Average temperature yesterday: 51 °F

Past Weeks' High & Low Weather Summary

 TemperatureHumidityPressure
High52 °F (Dec 18, 6:20 AM)100% (Dec 17, 3:50 PM)29.92 "Hg (Dec 17, 3:50 PM)
Low30 °F (Dec 13, 8:20 AM)57% (Dec 12, 10:50 AM)29.21 "Hg (Dec 12, 6:20 AM)
Average46 °F83%29.68 "Hg
* Reported Dec 12 6:20 AM — Dec 19 12:20 PM, Blackpool, Weather by CustomWeather, © 2014

Note: Actual official high and low records may vary slightly from our data, if they occured in-between our weather recording intervals... More about our weather records

Advertising

Blackpool weather history for previous 24 hours

 ConditionsComfort  
Time TempWeatherWind HumidityBarometerVisibility
12:20 PM
Dec 19
46 °FSprinkles. Passing clouds.26 mph76%29.89 "HgN/A
11:50 AM45 °FSprinkles. Scattered clouds.28 mph81%29.89 "HgN/A
11:20 AM45 °FSprinkles. Passing clouds.28 mph81%29.86 "HgN/A
10:50 AM46 °FScattered showers. Clear.29 mph71%29.86 "HgN/A
10:20 AM46 °FScattered showers. Passing clouds.28 mph71%29.86 "HgN/A
9:50 AM46 °FScattered showers. Passing clouds.25 mph71%29.83 "HgN/A
9:20 AM46 °FScattered showers. Passing clouds.28 mph71%29.83 "HgN/A
8:20 AM46 °FScattered showers. Passing clouds.29 mph71%29.80 "HgN/A
7:50 AM46 °FScattered showers. Passing clouds.28 mph71%29.77 "HgN/A
7:20 AM46 °FPassing clouds.25 mph71%29.77 "HgN/A
6:50 AM46 °FPassing clouds.26 mph71%29.77 "HgN/A
6:20 AM46 °FPassing clouds.23 mph71%29.74 "HgN/A
8:50 PM
Dec 18
50 °FPartly cloudy.17 mph94%29.62 "Hg4 mi
8:20 PM50 °FPartly cloudy.17 mph94%29.62 "Hg4 mi
7:50 PM50 °FPartly cloudy.20 mph94%29.59 "Hg4 mi
7:20 PM50 °FPartly cloudy.22 mph94%29.59 "Hg4 mi
6:50 PM50 °FPassing clouds.18 mph94%29.59 "Hg4 mi
6:20 PM52 °FRain. Passing clouds.24 mph94%29.59 "Hg4 mi
5:50 PM52 °FPassing clouds.25 mph94%29.59 "HgN/A
5:20 PM52 °FPassing clouds.26 mph94%29.56 "HgN/A
4:50 PM52 °FSprinkles. Passing clouds.28 mph94%29.56 "HgN/A
4:20 PM52 °FPassing clouds.28 mph94%29.56 "Hg4 mi
3:50 PM52 °FLight rain. Scattered clouds.28 mph94%29.56 "Hg4 mi
3:20 PM52 °FLight rain. Partly sunny.23 mph94%29.56 "Hg4 mi
2:50 PM52 °FLight rain. Scattered clouds.25 mph94%29.56 "Hg4 mi
2:20 PM52 °FScattered clouds.29 mph94%29.56 "Hg5 mi
1:20 PM52 °FScattered clouds.28 mph94%29.56 "Hg5 mi
Weather by CustomWeather, © 2014

See weather overviewHow to use our weather pages